This is the latest recevied weather packets stored in our database for station/object AA0PB. If no packets are shown the sender has not sent any weather packets the latest 10 day(s).
| Time | Temp. | Humidity | Pressure | Rain* | Wind** | Luminosity | Snow |
|---|---|---|---|---|---|---|---|
| 1777215482 | 8.33° C | 74% | 1010.3 hPa | 0 mm | - | 48 W/m² | - |
| 1777215178 | 7.78° C | 76% | 1010 hPa | 0 mm | - | 46 W/m² | - |
| 1777214873 | 7.78° C | 78% | 1010.1 hPa | 0 mm | - | 44 W/m² | - |
| 1777214573 | 7.78° C | 78% | 1010 hPa | 0 mm | - | 43 W/m² | - |
| 1777214268 | 7.22° C | 78% | 1010.1 hPa | 0 mm | - | 42 W/m² | - |
| 1777213966 | 7.78° C | 77% | 1010 hPa | 0 mm | - | 41 W/m² | - |
| 1777213662 | 7.22° C | 78% | 1009.9 hPa | 0 mm | - | 39 W/m² | - |
| 1777213358 | 7.78° C | 76% | 1009.9 hPa | 0 mm | - | 38 W/m² | - |
| 1777213056 | 7.22° C | 77% | 1009.9 hPa | 0 mm | - | 37 W/m² | - |
| 1777212752 | 6.67° C | 79% | 1009.8 hPa | 0 mm | - | 34 W/m² | - |
| 1777212447 | 6.67° C | 80% | 1009.6 hPa | 0 mm | - | 33 W/m² | - |
| 1777212142 | 6.11° C | 82% | 1009.6 hPa | 0 mm | - | 31 W/m² | - |
| 1777211838 | 5.56° C | 84% | 1009.5 hPa | 0 mm | - | 35 W/m² | - |
| 1777211537 | 5° C | 85% | 1009.3 hPa | 0 mm | - | 30 W/m² | - |
| 1777211233 | 4.44° C | 87% | 1009.6 hPa | 0 mm | - | 25 W/m² | - |
| 1777210930 | 4.44° C | 88% | 1009.5 hPa | 0 mm | - | 21 W/m² | - |
| 1777210629 | 3.89° C | 89% | 1009.3 hPa | 0 mm | - | 17 W/m² | - |
| 1777210326 | 3.33° C | 90% | 1009.4 hPa | 0 mm | - | 14 W/m² | - |
| 1777210023 | 3.33° C | 89% | 1009.2 hPa | 0 mm | - | 11 W/m² | - |
| 1777209723 | 3.33° C | 90% | 1009.4 hPa | 0 mm | - | 9 W/m² | - |
| 1777209419 | 3.33° C | 89% | 1009.2 hPa | 0 mm | - | 6 W/m² | - |
| 1777209115 | 3.33° C | 89% | 1009.2 hPa | 0 mm | - | 4 W/m² | - |
| 1777208811 | 3.33° C | 89% | 1009.1 hPa | 0 mm | - | 2 W/m² | - |
| 1777208508 | 3.89° C | 88% | 1009.2 hPa | 0 mm | - | 1 W/m² | - |
| 1777208204 | 3.89° C | 88% | 1009.1 hPa | 0 mm | - | 1 W/m² | - |
* Rain latest hour (hover to see other rain measurements)
** Current wind speed in m/s (hover to see current wind gust speed)